Santa Fe, NM

8:04 AM MDT on July 24, 2016 (GMT -0600)
Santa Fe Municipal

Weather History for KSAF - December, 2012

Change the Weather History Date:

Sunday, December 9, 2012

  Actual Average Record
Temperature  
Mean Temperature 27 °F -  
Max Temperature 45 °F 58 °F 59 °F (1977)
Min Temperature 6 °F 16 °F 6 °F (2012)
Degree Days  
Heating Degree Days 38    
Moisture  
Dew Point 19 °F    
Average Humidity 74    
Maximum Humidity 100    
Minimum Humidity 33    
Precipitation  
Precipitation 0.11 in - - ()
Sea Level Pressure  
Sea Level Pressure 29.93 in    
Wind  
Wind Speed 7 mph (SSE)    
Max Wind Speed 18 mph    
Max Gust Speed 26 mph    
Visibility 6 miles    
Events Fog , Snow    
Averages and records for this station are not official NWS values.
T = Trace of Precipitation, MM = Missing Value Source: NWS Daily Summary

Daily Weather History Graph

Daily Weather History Graph

Search for Another Location

Airport or City:

Trip Planner

Search our weather history database for the weather conditions in past years. The results will help you decide how hot, cold, wet, or windy it might be!

Date:

Astronomy

Dec. 09, 2012 Rise Set
Actual Time 7:02 AM MST 4:51 PM MST
Civil Twilight 6:34 AM MST 5:19 PM MST
Nautical Twilight 6:02 AM MST 5:51 PM MST
Astronomical Twilight 5:31 AM MST 6:22 PM MST
Moon 2:44 AM MST (12/9) 1:54 PM MST (12/9)
Length of Visible Light 10h 45m
Length of Day
9h 48m
Waning Crescent, 18% of the Moon is Illuminated
Dec 9
Waning Crescent
Dec 13
New
Dec 19
First Quarter
Dec 28
Full
Jan 4
Last Quarter

Hourly Weather History & Observations

Time (MST) Temp. Windchill Dew Point Humidity Pressure Visibility Wind Dir Wind Speed Gust Speed Precip Events Conditions
12:53 AM 33.1 °F 30.0 °F 12.9 °F 43% 29.79 in 10.0 mi ENE 3.5 mph - N/A   Clear
1:53 AM 26.1 °F 21.9 °F 12.0 °F 55% 29.81 in 10.0 mi Variable 3.5 mph - N/A   Clear
2:53 AM 27.0 °F - 10.0 °F 49% 29.80 in 10.0 mi Calm Calm - N/A   Clear
3:53 AM 35.1 °F - 10.9 °F 37% 29.76 in 10.0 mi Calm Calm - N/A   Clear
4:53 AM 34.0 °F - 10.9 °F 38% 29.77 in 10.0 mi Calm Calm - N/A   Clear
5:53 AM 28.9 °F - 10.9 °F 47% 29.81 in 10.0 mi Calm Calm - N/A   Clear
6:53 AM 30.0 °F - 16.0 °F 56% 29.84 in 10.0 mi Calm Calm - N/A   Clear
7:53 AM 33.1 °F - 19.9 °F 59% 29.85 in 10.0 mi Calm Calm - N/A   Clear
8:53 AM 37.0 °F 31.0 °F 19.9 °F 50% 29.83 in 10.0 mi South 8.1 mph - N/A   Clear
9:53 AM 41.0 °F 34.7 °F 19.9 °F 43% 29.83 in 10.0 mi SSW 10.4 mph 19.6 mph N/A   Clear
10:53 AM 45.0 °F 38.2 °F 19.9 °F 37% 29.79 in 10.0 mi SW 15.0 mph 21.9 mph N/A   Clear
11:53 AM 45.0 °F 37.4 °F 17.1 °F 33% 29.79 in 10.0 mi SW 18.4 mph 24.2 mph N/A   Mostly Cloudy
12:53 PM 41.0 °F 35.8 °F 17.1 °F 38% 29.78 in 10.0 mi SSW 8.1 mph 24.2 mph N/A   Overcast
1:53 PM 37.9 °F 33.5 °F 19.0 °F 47% 29.83 in 10.0 mi South 5.8 mph - N/A   Overcast
2:07 PM 35.6 °F 25.9 °F 26.6 °F 70% 29.87 in 2.0 mi WSW 16.1 mph 26.5 mph 0.00 in Snow Light Snow
2:16 PM 32.0 °F 23.0 °F 28.4 °F 87% 29.88 in 1.0 mi West 11.5 mph - 0.00 in Snow Light Snow
2:23 PM 30.2 °F 22.6 °F 28.4 °F 93% 29.89 in 0.8 mi WSW 8.1 mph - 0.00 in Snow Light Snow
2:38 PM 30.2 °F 24.3 °F 30.2 °F 100% 29.90 in 0.2 mi SW 5.8 mph - 0.02 in Fog , Snow Heavy Snow
2:48 PM 30.2 °F 20.8 °F 30.2 °F 100% 29.91 in 0.5 mi SSW 11.5 mph - 0.04 in Fog , Snow Snow
2:53 PM 30.0 °F 20.0 °F 30.0 °F 100% 29.92 in 0.2 mi South 12.7 mph - 0.05 in Fog , Snow Heavy Snow
3:00 PM 28.4 °F 17.5 °F 28.4 °F 100% 29.91 in 0.5 mi SE 13.8 mph - 0.01 in Fog , Snow Snow
3:04 PM 28.4 °F 17.5 °F 26.6 °F 93% 29.91 in 0.2 mi SE 13.8 mph - 0.01 in Fog , Snow Heavy Snow
3:13 PM 26.6 °F 14.7 °F 26.6 °F 100% 29.92 in 0.2 mi SSE 15.0 mph - 0.02 in Fog , Snow Heavy Snow
3:28 PM 26.6 °F 16.2 °F 24.8 °F 93% 29.95 in 0.5 mi SSE 11.5 mph - 0.04 in Fog , Snow Snow
3:53 PM 25.0 °F 12.6 °F 24.1 °F 96% 29.97 in 0.5 mi SE 15.0 mph - 0.06 in Fog , Snow Snow
4:04 PM 24.8 °F 11.9 °F 24.8 °F 100% 29.97 in 0.8 mi SE 16.1 mph 21.9 mph 0.00 in Snow Light Snow
4:12 PM 24.8 °F 11.1 °F 23.0 °F 93% 29.98 in 2.0 mi SE 18.4 mph - 0.00 in Snow Light Snow
4:17 PM 24.8 °F 12.4 °F 23.0 °F 93% 29.98 in 3.0 mi SE 15.0 mph - 0.00 in Snow Light Snow
4:53 PM 24.1 °F 12.0 °F 21.0 °F 88% 30.00 in 10.0 mi SE 13.8 mph - 0.00 in Snow Light Snow
5:53 PM 21.0 °F 9.3 °F 19.0 °F 92% 30.07 in 10.0 mi SE 11.5 mph - 0.00 in   Partly Cloudy
6:53 PM 18.0 °F 6.9 °F 15.1 °F 88% 30.13 in 10.0 mi SSE 9.2 mph - N/A   Clear
7:53 PM 14.0 °F 8.2 °F 10.9 °F 88% 30.17 in 10.0 mi North 3.5 mph - N/A   Clear
8:53 PM 12.0 °F - 9.0 °F 88% 30.18 in 10.0 mi Calm Calm - N/A   Clear
9:53 PM 10.0 °F 0.4 °F 6.1 °F 84% 30.19 in 10.0 mi SE 5.8 mph - N/A   Clear
10:53 PM 9.0 °F -0.9 °F 5.0 °F 84% 30.18 in 10.0 mi SE 5.8 mph - N/A   Clear
11:53 PM 6.1 °F -4.3 °F 3.0 °F 87% 30.19 in 10.0 mi SE 5.8 mph - N/A   Clear